Tracking 28794 objects as of 19-Apr-2024
HD Live streaming from Space Station
objects crossing your sky now

STARLINK-4123

Track STARLINK-4123 now!
10-day predictions
STARLINK-4123 is classified as:


NORAD ID: 53539
Int'l Code: 2022-101N
Perigee: 545.9 km
Apogee: 547.8 km
Inclination: 53.2 °
Period: 95.4 minutes
Semi major axis: 6917 km
RCS: Unknown
Launch date: August 19, 2022
Source: United States (US)
Launch site: AIR FORCE EASTERN TEST RANGE (AFETR)
Your satellite tracking list
Your tracking list is empty




NASA's NSSDC Master Catalog

Two Line Element Set (TLE):
1 53539U 22101N   24109.76776345  .00000412  00000-0  43953-4 0  9997
2 53539  53.2160 291.3002 0001396 100.7312 259.3837 15.08843374 92016
Source of the keplerian elements: AFSPC